Mojave, CA

5:07 PM PST on December 06, 2019 (GMT -0800)
Mojave

Weather History for KMHV - October, 2019

Change the Weather History Date:

Tuesday, October 22, 2019

  Actual Average Record
Temperature  
Mean Temperature 66 °F -  
Max Temperature 82 °F 76 °F 89 °F (1988)
Min Temperature 51 °F 47 °F 34 °F (1978)
Cooling Degree Days 2    
Growing Degree Days 16 (Base 50)    
Moisture  
Dew Point 26 °F    
Average Humidity 24    
Maximum Humidity 35    
Minimum Humidity 12    
Precipitation  
Precipitation 0.00 in - - ()
Sea Level Pressure  
Sea Level Pressure 30.20 in    
Wind  
Wind Speed 7 mph ()    
Max Wind Speed 12 mph    
Max Gust Speed 12 mph    
Visibility 9.7 miles    
Events      
Averages and records for this station are not official NWS values.
T = Trace of Precipitation, MM = Missing Value Source: Averaged Metar Reports

Daily Weather History Graph

Daily Weather History Graph

Search for Another Location

Airport or City:

Astronomy

Oct. 22, 2019 Rise Set
Actual Time 7:04 AM PDT 6:09 PM PDT
Civil Twilight 6:38 AM PDT 6:34 PM PDT
Nautical Twilight 6:09 AM PDT 7:04 PM PDT
Astronomical Twilight 5:39 AM PDT 7:33 PM PDT
Moon 12:38 AM PDT (10/22) 3:04 PM PDT (10/22)
Length of Visible Light 11h 56m
Length of Day
11h 04m
Last Quarter, 36% of the Moon is Illuminated
Oct 22
Last Quarter
Oct 27
New
Nov 4
First Quarter
Nov 12
Full
Nov 19
Last Quarter

Hourly Weather History & Observations

Time (PDT) Temp. Dew Point Humidity Pressure Visibility Wind Dir Wind Speed Gust Speed Precip Events Conditions
12:00 AM 59.0 °F 30.2 °F 34% 30.24 in 10.0 mi NNW 9.2 mph - N/A   Clear
12:20 AM 59.0 °F 30.2 °F 34% 30.25 in 10.0 mi NNW 10.4 mph - N/A   Clear
12:40 AM 59.0 °F 28.4 °F 31% 30.24 in 10.0 mi NNW 9.2 mph - N/A   Clear
1:00 AM 57.2 °F 28.4 °F 33% 30.25 in 10.0 mi NNW 10.4 mph - N/A   Clear
1:20 AM 57.2 °F 26.6 °F 31% 30.24 in 10.0 mi NNW 10.4 mph - N/A   Clear
1:40 AM 57.2 °F 26.6 °F 31% 30.25 in 10.0 mi NNW 6.9 mph - N/A   Clear
2:00 AM 55.4 °F 26.6 °F 33% 30.25 in 10.0 mi NNW 9.2 mph - N/A   Clear
2:20 AM 57.2 °F 26.6 °F 31% 30.25 in 10.0 mi North 9.2 mph - N/A   Clear
2:40 AM 55.4 °F 26.6 °F 33% 30.24 in 10.0 mi WNW 5.8 mph - N/A   Clear
3:00 AM 55.4 °F 26.6 °F 33% 30.24 in 10.0 mi NNW 6.9 mph - N/A   Clear
3:20 AM 55.4 °F 26.6 °F 33% 30.23 in 10.0 mi NNW 10.4 mph - N/A   Clear
3:40 AM 55.4 °F 26.6 °F 33% 30.23 in 10.0 mi NW 10.4 mph - N/A   Clear
4:00 AM 53.6 °F 24.8 °F 33% 30.23 in 10.0 mi NW 9.2 mph - N/A   Clear
4:20 AM 55.4 °F 24.8 °F 31% 30.23 in 10.0 mi NW 11.5 mph - N/A   Clear
4:40 AM 53.6 °F 24.8 °F 33% 30.23 in 10.0 mi NW 11.5 mph - N/A   Partly Cloudy
5:00 AM 53.6 °F 24.8 °F 33% 30.23 in 10.0 mi NNW 10.4 mph - N/A   Clear
5:20 AM 53.6 °F 24.8 °F 33% 30.23 in 10.0 mi NNW 10.4 mph - N/A   Clear
5:40 AM 53.6 °F 24.8 °F 33% 30.24 in 10.0 mi NW 8.1 mph - N/A   Clear
6:00 AM 53.6 °F 24.8 °F 33% 30.24 in 10.0 mi NW 8.1 mph - N/A   Clear
6:20 AM 53.6 °F 24.8 °F 33% 30.24 in 10.0 mi NW 6.9 mph - N/A   Clear
6:40 AM 53.6 °F 24.8 °F 33% 30.25 in 10.0 mi NW 8.1 mph - N/A   Clear
7:00 AM 51.8 °F 24.8 °F 35% 30.24 in 9.0 mi NNW 9.2 mph - N/A   Clear
7:20 AM 53.6 °F 24.8 °F 33% 30.25 in 5.0 mi NNW 9.2 mph - N/A   Haze
7:40 AM 55.4 °F 24.8 °F 31% 30.26 in 7.0 mi NNW 9.2 mph - N/A   Clear
8:00 AM 60.8 °F 26.6 °F 27% 30.26 in 9.0 mi NNW 4.6 mph - N/A   Clear
8:20 AM 64.4 °F 26.6 °F 24% 30.26 in 5.0 mi North 3.5 mph - N/A   Haze
8:40 AM 64.4 °F 26.6 °F 24% 30.27 in 7.0 mi Calm Calm - N/A   Clear
9:00 AM 64.4 °F 26.6 °F 24% 30.27 in 9.0 mi South 4.6 mph - N/A   Clear
9:20 AM 64.4 °F 26.6 °F 24% 30.28 in 10.0 mi Calm Calm - N/A   Clear
9:40 AM 68.0 °F 26.6 °F 21% 30.28 in 10.0 mi Calm Calm - N/A   Clear
10:00 AM 69.8 °F 26.6 °F 20% 30.28 in 10.0 mi Calm Calm - N/A   Clear
10:20 AM 71.6 °F 26.6 °F 19% 30.27 in 10.0 mi Calm Calm - N/A   Clear
10:40 AM 73.4 °F 26.6 °F 18% 30.27 in 10.0 mi East 4.6 mph - N/A   Clear
11:00 AM 75.2 °F 26.6 °F 17% 30.26 in 10.0 mi Calm Calm - N/A   Clear
11:20 AM 75.2 °F 26.6 °F 17% 30.26 in 10.0 mi Calm Calm - N/A   Clear
11:40 AM 77.0 °F 26.6 °F 16% 30.26 in 10.0 mi Variable 4.6 mph - N/A   Clear
12:00 PM 77.0 °F 26.6 °F 16% 30.25 in 10.0 mi ESE 4.6 mph - N/A   Clear
12:20 PM 78.8 °F 26.6 °F 15% 30.24 in 10.0 mi ESE 5.8 mph - N/A   Clear
12:40 PM 78.8 °F 26.6 °F 15% 30.23 in 10.0 mi Calm Calm - N/A   Clear
1:00 PM 78.8 °F 24.8 °F 14% 30.21 in 10.0 mi SE 5.8 mph 11.5 mph N/A   Clear
1:20 PM 78.8 °F 24.8 °F 14% 30.20 in 10.0 mi Calm Calm - N/A   Clear
1:40 PM 80.6 °F 24.8 °F 13% 30.19 in 10.0 mi SE 4.6 mph - N/A   Clear
2:20 PM 82.4 °F 24.8 °F 12% 30.17 in 10.0 mi East 5.8 mph - N/A   Clear
2:40 PM 80.6 °F 24.8 °F 13% 30.16 in 10.0 mi SE 4.6 mph - N/A   Clear
3:00 PM 80.6 °F 24.8 °F 13% 30.15 in 10.0 mi Calm Calm - N/A   Clear
3:20 PM 80.6 °F 24.8 °F 13% 30.15 in 10.0 mi Calm Calm - N/A   Clear
3:40 PM 82.4 °F 24.8 °F 12% 30.14 in 10.0 mi Calm Calm - N/A   Clear
4:00 PM 82.4 °F 24.8 °F 12% 30.14 in 10.0 mi Variable 5.8 mph - N/A   Clear
4:20 PM 82.4 °F 24.8 °F 12% 30.13 in 10.0 mi Variable 4.6 mph - N/A   Clear
4:40 PM 82.4 °F 24.8 °F 12% 30.13 in 10.0 mi ESE 6.9 mph - N/A   Clear
5:00 PM 80.6 °F 24.8 °F 13% 30.12 in 10.0 mi SSE 4.6 mph - N/A   Clear
5:20 PM 80.6 °F 24.8 °F 13% 30.12 in 10.0 mi Calm Calm - N/A   Clear
5:40 PM 80.6 °F 24.8 °F 13% 30.11 in 10.0 mi East 8.1 mph - N/A   Clear
6:00 PM 78.8 °F 24.8 °F 14% 30.12 in 10.0 mi ENE 4.6 mph - N/A   Clear
6:20 PM 77.0 °F 23.0 °F 13% 30.12 in 10.0 mi NE 5.8 mph - N/A   Clear
6:40 PM 71.6 °F 21.2 °F 15% 30.12 in 10.0 mi NNW 5.8 mph - N/A   Clear
7:00 PM 68.0 °F 21.2 °F 17% 30.12 in 10.0 mi NNW 8.1 mph - N/A   Clear
7:20 PM 66.2 °F 21.2 °F 18% 30.12 in 10.0 mi NW 9.2 mph - N/A   Clear
7:40 PM 66.2 °F 24.8 °F 21% 30.12 in 10.0 mi NW 8.1 mph - N/A   Clear
8:00 PM 66.2 °F 26.6 °F 23% 30.12 in 10.0 mi NW 10.4 mph - N/A   Clear
8:20 PM 66.2 °F 28.4 °F 24% 30.13 in 10.0 mi NW 10.4 mph - N/A   Clear
8:40 PM 64.4 °F 28.4 °F 26% 30.13 in 10.0 mi NW 10.4 mph - N/A   Clear
9:00 PM 66.2 °F 30.2 °F 26% 30.13 in 10.0 mi NW 9.2 mph - N/A   Clear
9:20 PM 64.4 °F 30.2 °F 28% 30.13 in 10.0 mi NW 10.4 mph - N/A   Clear
9:40 PM 64.4 °F 30.2 °F 28% 30.13 in 10.0 mi NW 10.4 mph - N/A   Clear
10:00 PM 66.2 °F 30.2 °F 26% 30.13 in 10.0 mi NW 8.1 mph - N/A   Clear
10:40 PM 64.4 °F 30.2 °F 28% 30.12 in 10.0 mi Variable 3.5 mph - N/A   Partly Cloudy
11:00 PM 62.6 °F 30.2 °F 30% 30.12 in 10.0 mi NW 6.9 mph - N/A   Clear
11:20 PM 62.6 °F 30.2 °F 30% 30.12 in 10.0 mi WNW 4.6 mph - N/A   Clear
11:40 PM 60.8 °F 28.4 °F 29% 30.12 in 10.0 mi NNW 8.1 mph - N/A   Clear